GSAT0102 (PRN E12)

Last updated on Oct. 30, 2020, 5:57 a.m. UTC

1 37847U 11060B   20303.20042659 -.00000093  00000-0  00000+0 0  9995
2 37847  56.7116  37.6137 0002917 290.1137  67.1755  1.70475594 56178
UTC
Height (km)
Latitude
Longitude
Inclination
Orbital Period
UTC large
Height (km)
Speed (km/s)
/
Latitude / Longitude
Inclination (degrees)
Orbital Period (minutes)
Azimuth
Elevation
Range (km)
Doppler Factor
iOS Compass Heading
iOS Angle

Next 30 passes for location: Hong Kong

Rise time Rise Azimuth (degrees) Set time Set Azimuth (degrees) Duration Max altitude (degrees)

No matching passes for this satellites